This is the latest recevied weather packets stored in our database for station/object W8KVG. If no packets are shown the sender has not sent any weather packets the latest 10 day(s).
| Time | Temp. | Humidity | Pressure | Rain* | Wind** | Luminosity | Snow |
|---|---|---|---|---|---|---|---|
| 1777843586 | 18.33° C | 35% | 1012.4 hPa | 0 mm | - | 460 W/m² | - |
| 1777843283 | 16.67° C | 36% | 1012.5 hPa | 0 mm | - | 508 W/m² | - |
| 1777842981 | 15.56° C | 39% | 1012.4 hPa | 0 mm | - | 149 W/m² | - |
| 1777842676 | 14.44° C | 39% | 1012.5 hPa | 0 mm | - | 110 W/m² | - |
| 1777842372 | 16.11° C | 36% | 1012.7 hPa | 0 mm | - | 535 W/m² | - |
| 1777842069 | 16.11° C | 36% | 1012.7 hPa | 0 mm | - | 123 W/m² | - |
| 1777841765 | 15.56° C | 37% | 1012.8 hPa | 0 mm | - | 370 W/m² | - |
| 1777841461 | 16.67° C | 37% | 1012.8 hPa | 0 mm | - | 399 W/m² | - |
| 1777841158 | 15.56° C | 39% | 1013 hPa | 0 mm | - | 183 W/m² | - |
| 1777840855 | 15.56° C | 36% | 1013 hPa | 0 mm | - | 119 W/m² | - |
| 1777840552 | 16.11° C | 41% | 1012.7 hPa | 0 mm | - | 686 W/m² | - |
| 1777840249 | 15.56° C | 38% | 1013.1 hPa | 0 mm | - | 233 W/m² | - |
| 1777839947 | 16.11° C | 37% | 1013.1 hPa | 0 mm | - | 170 W/m² | - |
| 1777839645 | 15.56° C | 38% | 1013.2 hPa | 0 mm | - | 761 W/m² | - |
| 1777839343 | 15° C | 39% | 1013.4 hPa | 0 mm | - | 409 W/m² | - |
| 1777839040 | 15.56° C | 35% | 1013.1 hPa | 0 mm | - | 162 W/m² | - |
| 1777838736 | 16.67° C | 36% | 1013.3 hPa | 0 mm | - | 224 W/m² | - |
| 1777838433 | 15.56° C | 38% | 1013.4 hPa | 0 mm | - | 154 W/m² | - |
| 1777838130 | 16.11° C | 37% | 1013.3 hPa | 0 mm | - | 147 W/m² | - |
| 1777837827 | 16.11° C | 35% | 1013.6 hPa | 0 mm | - | 809 W/m² | - |
| 1777837528 | 15° C | 37% | 1013.7 hPa | 0 mm | - | 441 W/m² | - |
| 1777837223 | 15.56° C | 36% | 1013.8 hPa | 0 mm | - | 139 W/m² | - |
| 1777836920 | 15.56° C | 35% | 1013.7 hPa | 0 mm | - | 768 W/m² | - |
| 1777836611 | 16.11° C | 35% | 1013.9 hPa | 0 mm | - | 793 W/m² | - |
| 1777836307 | 15.56° C | 38% | 1013.9 hPa | 0 mm | - | 842 W/m² | - |
* Rain latest hour (hover to see other rain measurements)
** Current wind speed in m/s (hover to see current wind gust speed)